Tracking 17921 objects as of 18-January-2017
HD Live streaming from Space Station
objects crossing your sky now

CZ-4 DEB

Track CZ-4 DEB now!
10-day predictions


NORAD ID: 26650
Int'l Code: 1999-057LG
Perigee: 632.5 km
Apogee: 647.2 km
Inclination: 98.5 °
Period: 97.4 minutes
Semi major axis: 7010 km
RCS: 0.0056 m2 (small)
Launch date: October 14, 1999
Source: People's Republic of China (PRC)
Launch site: Taiyaun Space Center, China (TSC)

Note: This is SATELLITE DEBRIS
Your satellite tracking list
Your tracking list is empty





NASA's NSSDC Master Catalog

Two Line Element Set (TLE):
1 26650U 99057LG  17018.19081300  .00000357  00000-0  56357-4 0  9993
2 26650  98.5400  94.1258 0010477 313.8436 100.1781 14.78920032888663
Source of the keplerian elements: AFSPC